Location: ????????
(42.0488°N, 44.0407°E)
Time: 22:31:15
(UTC+00:00)

Cosmos 1766 Rocket - Pass Details

Date: 07 June 2020
Orbit: 606 x 632 km, 82.5° (Epoch: 06 July)

Event Time Altitude Azimuth Distance (km) Brightness Sun altitude
Exits shadow 00:04:40 11° 181° (S) 1,878 5.6 -12.8°
Maximum altitude 00:08:48 77° 96° (E) 629 3.6 -12.2°
Drops below altitude 10° 00:13:08 10° 11° (N) 1,964 7.1 -11.7°
Sets 00:15:21 0° 10° (N) 2,872 8.0 -11.4°
